User: anonymous   Login
Location: Anumalkud?ru
(16.4847°N, 80.6636°E)
Time: 16:53:58
(UTC+00:00)
Language:

Cosmos 1461 - Orbit

View from above orbital plane
View from above orbital plane
View from above satellite
View from above satellite

Ground track
Ground track

The orbit is defined by the following mean orbital elements,

1 14064U          26157.13851789 +.00000000 +00000-0 +76629-3 0 00004
2 14064  64.9868  87.5699 0039738 201.8748 158.0696 15.38977019    07
Epoch (UTC): 06 June 2026 03:19:27
Eccentricity: 0.0039738
inclination: 64.9868°
perigee height: 422 km
apogee height: 476 km
right ascension of ascending node: 87.5699°
argument of perigee: 201.8748°
revolutions per day: 15.38977019
mean anomaly at epoch: 158.0696°

The dashed part of the orbit path shows where the satellite is in the earth's shadow,  

DLR